Los Alamos, NM

6:22 AM MDT on June 22, 2017 (GMT -0600)
Los Alamos

Weather History for KLAM - May, 2013

Change the Weather History Date:

Wednesday, May 15, 2013

  Actual Average Record
Temperature  
Mean Temperature 62 °F -  
Max Temperature 70 °F 68 °F 83 °F (1952)
Min Temperature 55 °F 42 °F 29 °F (1967)
Degree Days  
Heating Degree Days 2    
Growing Degree Days 12 (Base 50)    
Moisture  
Dew Point 39 °F    
Average Humidity 42    
Maximum Humidity 56    
Minimum Humidity 28    
Precipitation  
Precipitation 0.03 in - - ()
Sea Level Pressure  
Sea Level Pressure 30.13 in    
Wind  
Wind Speed 5 mph (North)    
Max Wind Speed 14 mph    
Max Gust Speed 23 mph    
Visibility 10 miles    
Events Rain    
Averages and records for this station are not official NWS values.
T = Trace of Precipitation, MM = Missing Value Source: NWS Daily Summary

Daily Weather History Graph

Daily Weather History Graph

Search for Another Location

Airport or City:

Trip Planner

Search our weather history database for the weather conditions in past years. The results will help you decide how hot, cold, wet, or windy it might be!

Date:

Astronomy

May. 15, 2013 Rise Set
Actual Time 5:59 AM MDT 8:04 PM MDT
Civil Twilight 5:30 AM MDT 8:32 PM MDT
Nautical Twilight 4:56 AM MDT 9:07 PM MDT
Astronomical Twilight 4:18 AM MDT 9:44 PM MDT
Moon 10:35 AM MDT (5/15) No Moon Set
Length of Visible Light 15h 01m
Length of Day
14h 04m
Waxing Crescent, 27% of the Moon is Illuminated
May 15
Waxing Crescent
May 17
First Quarter
May 24
Full
May 31
Last Quarter
Jun 8
New

Hourly Weather History & Observations

Time (MDT) Temp. Dew Point Humidity Pressure Visibility Wind Dir Wind Speed Gust Speed Precip Events Conditions
12:15 AM 59.7 °F 37.8 °F 44% 30.19 in 10.0 mi WNW 6.9 mph - N/A   Mostly Cloudy
12:35 AM 59.9 °F 37.4 °F 43% 30.17 in 10.0 mi WNW 5.8 mph 17.3 mph N/A   Scattered Clouds
12:55 AM 59.4 °F 37.4 °F 44% 30.17 in 10.0 mi WNW 6.9 mph - N/A   Clear
1:15 AM 59.5 °F 36.5 °F 42% 30.17 in 10.0 mi WNW 6.9 mph - N/A   Scattered Clouds
1:35 AM 58.1 °F 37.6 °F 46% 30.17 in 10.0 mi ENE 3.5 mph - N/A   Mostly Cloudy
1:55 AM 57.6 °F 38.3 °F 49% 30.17 in 10.0 mi Calm Calm - N/A   Overcast
2:15 AM 57.0 °F 38.3 °F 50% 30.17 in 10.0 mi Calm Calm - N/A   Overcast
2:35 AM 57.6 °F 38.3 °F 49% 30.17 in 10.0 mi NNE 3.5 mph - N/A   Overcast
2:55 AM 57.4 °F 38.5 °F 49% 30.16 in 10.0 mi North 5.8 mph - N/A   Overcast
3:15 AM 57.2 °F 38.7 °F 50% 30.15 in 10.0 mi North 5.8 mph - N/A   Mostly Cloudy
3:35 AM 56.5 °F 38.5 °F 51% 30.15 in 10.0 mi NW 4.6 mph - N/A   Scattered Clouds
3:55 AM 55.9 °F 38.5 °F 52% 30.15 in 10.0 mi NW 6.9 mph - N/A   Clear
4:15 AM 55.9 °F 38.7 °F 52% 30.15 in 10.0 mi NW 6.9 mph - N/A   Clear
4:35 AM 56.3 °F 38.7 °F 52% 30.15 in 10.0 mi NW 5.8 mph - N/A   Scattered Clouds
4:55 AM 56.1 °F 38.7 °F 52% 30.14 in 10.0 mi NNW 8.1 mph - N/A   Scattered Clouds
5:15 AM 55.8 °F 38.8 °F 53% 30.14 in 10.0 mi North 5.8 mph - N/A   Scattered Clouds
5:35 AM 55.9 °F 39.2 °F 53% 30.14 in 10.0 mi North 6.9 mph - N/A   Mostly Cloudy
5:55 AM 55.8 °F 39.2 °F 54% 30.14 in 10.0 mi North 3.5 mph - N/A   Overcast
6:15 AM 55.9 °F 38.7 °F 52% 30.14 in 10.0 mi North 5.8 mph - N/A   Mostly Cloudy
6:35 AM 56.5 °F 38.7 °F 51% 30.15 in 10.0 mi Calm Calm - N/A   Overcast
6:55 AM 56.7 °F 38.7 °F 51% 30.15 in 10.0 mi NNW 3.5 mph - N/A   Overcast
7:15 AM 57.4 °F 38.8 °F 50% 30.16 in 10.0 mi Calm Calm - N/A   Overcast
7:35 AM 57.7 °F 39.4 °F 50% 30.16 in 10.0 mi Calm Calm - N/A   Light Drizzle
7:55 AM 57.9 °F 39.2 °F 50% 30.16 in 10.0 mi NE 3.5 mph - N/A   Overcast
8:15 AM 57.7 °F 39.4 °F 50% 30.16 in 10.0 mi North 3.5 mph - N/A   Scattered Clouds
8:35 AM 59.7 °F 39.9 °F 48% 30.15 in 10.0 mi NNE 8.1 mph - N/A   Clear
8:55 AM 61.2 °F 39.7 °F 45% 30.15 in 10.0 mi North 9.2 mph - N/A   Clear
9:15 AM 63.3 °F 39.4 °F 41% 30.15 in 10.0 mi NNE 8.1 mph - N/A   Mostly Cloudy
9:35 AM 63.5 °F 38.5 °F 40% 30.15 in 10.0 mi Calm Calm - N/A   Scattered Clouds
9:55 AM 64.4 °F 37.8 °F 37% 30.15 in 10.0 mi NNE 9.2 mph - N/A   Clear
10:15 AM 66.0 °F 37.9 °F 36% 30.15 in 10.0 mi NE 5.8 mph - N/A   Clear
10:35 AM 66.7 °F 37.2 °F 34% 30.15 in 10.0 mi ENE 5.8 mph - N/A   Scattered Clouds
10:55 AM 66.2 °F 36.9 °F 34% 30.15 in 10.0 mi Calm Calm - N/A   Mostly Cloudy
11:15 AM 68.5 °F 37.2 °F 32% 30.14 in 10.0 mi SSE 3.5 mph - N/A   Mostly Cloudy
11:35 AM 69.6 °F 37.6 °F 31% 30.13 in 10.0 mi SE 4.6 mph - N/A   Mostly Cloudy
11:55 AM 70.0 °F 37.2 °F 30% 30.13 in 10.0 mi ESE 3.5 mph - N/A   Mostly Cloudy
12:15 PM 69.3 °F 37.2 °F 31% 30.12 in 10.0 mi South 3.5 mph - N/A   Mostly Cloudy
12:35 PM 70.0 °F 36.3 °F 29% 30.11 in 10.0 mi Calm Calm - N/A   Overcast
12:55 PM 67.1 °F 39.0 °F 36% 30.11 in 7.0 mi NNE 5.8 mph - 0.02 in Rain Heavy Rain
1:15 PM 67.1 °F 42.3 °F 40% 30.10 in 10.0 mi North 3.5 mph - N/A   Mostly Cloudy
1:35 PM 68.9 °F 40.5 °F 35% 30.09 in 10.0 mi NNE 5.8 mph 20.7 mph N/A   Mostly Cloudy
1:55 PM 69.1 °F 37.2 °F 31% 30.09 in 10.0 mi NNE 8.1 mph - N/A   Mostly Cloudy
2:15 PM 66.0 °F 41.5 °F 41% 30.10 in 10.0 mi East 3.5 mph - 0.01 in Rain Light Rain
2:35 PM 64.8 °F 44.6 °F 48% 30.10 in 7.0 mi SSW 5.8 mph - 0.01 in Rain Rain
2:55 PM 64.0 °F 43.2 °F 47% 30.10 in 10.0 mi SE 3.5 mph - 0.01 in   Overcast
3:15 PM 64.9 °F 44.6 °F 48% 30.09 in 10.0 mi Calm Calm - N/A   Mostly Cloudy
3:35 PM 65.8 °F 47.1 °F 51% 30.08 in 10.0 mi South 4.6 mph - N/A   Mostly Cloudy
3:55 PM 65.3 °F 49.1 °F 56% 30.10 in 10.0 mi West 13.8 mph - N/A   Mostly Cloudy
4:15 PM 66.9 °F 43.9 °F 43% 30.08 in 10.0 mi South 3.5 mph - N/A   Mostly Cloudy
4:35 PM 67.6 °F 39.4 °F 36% 30.08 in 10.0 mi Calm Calm - N/A   Mostly Cloudy
4:55 PM 68.0 °F 40.6 °F 37% 30.08 in 10.0 mi North 9.2 mph - N/A   Mostly Cloudy
5:15 PM 68.4 °F 37.0 °F 32% 30.06 in 10.0 mi NNE 8.1 mph 17.3 mph N/A Rain Light Rain
5:35 PM 69.3 °F 36.1 °F 30% 30.06 in 10.0 mi NNE 12.7 mph 17.3 mph N/A   Overcast
5:55 PM 70.0 °F 35.6 °F 28% 30.07 in 10.0 mi NNE 10.4 mph 18.4 mph N/A   Scattered Clouds
6:15 PM 69.3 °F 34.3 °F 28% 30.08 in 10.0 mi North 11.5 mph 18.4 mph N/A   Mostly Cloudy
6:35 PM 68.9 °F 35.1 °F 29% 30.08 in 10.0 mi North 11.5 mph 17.3 mph N/A   Overcast
6:55 PM 68.9 °F 35.8 °F 30% 30.08 in 10.0 mi NNE 10.4 mph - N/A   Mostly Cloudy
7:15 PM 68.2 °F 36.1 °F 31% 30.07 in 10.0 mi NE 6.9 mph - N/A   Scattered Clouds
7:35 PM 67.8 °F 36.5 °F 32% 30.07 in 10.0 mi NE 6.9 mph - N/A   Scattered Clouds
7:55 PM 66.9 °F 35.6 °F 31% 30.07 in 10.0 mi NNE 9.2 mph - N/A   Scattered Clouds
8:15 PM 66.7 °F 34.2 °F 30% 30.08 in 10.0 mi NNE 8.1 mph - N/A   Clear
8:35 PM 65.3 °F 34.5 °F 32% 30.09 in 10.0 mi North 10.4 mph - N/A   Scattered Clouds
8:55 PM 64.4 °F 34.7 °F 33% 30.09 in 10.0 mi North 10.4 mph 18.4 mph N/A   Clear
9:15 PM 62.8 °F 37.2 °F 39% 30.10 in 10.0 mi NNW 13.8 mph 23.0 mph N/A   Clear
9:35 PM 61.9 °F 38.3 °F 42% 30.13 in 10.0 mi NW 11.5 mph 20.7 mph N/A   Clear
9:55 PM 61.5 °F 38.3 °F 42% 30.13 in 10.0 mi NNW 4.6 mph - N/A   Clear
10:15 PM 61.0 °F 38.5 °F 43% 30.14 in 10.0 mi WNW 4.6 mph - N/A   Clear
10:55 PM 59.9 °F 38.3 °F 45% 30.14 in 10.0 mi NW 5.8 mph - N/A   Clear
11:15 PM 59.9 °F 37.9 °F 44% 30.13 in 10.0 mi WNW 3.5 mph - N/A   Clear
11:35 PM 60.3 °F 37.6 °F 43% 30.13 in 10.0 mi NW 3.5 mph - N/A   Clear
11:55 PM 60.8 °F 37.4 °F 42% 30.13 in 10.0 mi Calm Calm - N/A   Clear